Location: Boncourt
(49.6160°N, 3.9448°E)
Time: 09:54:11
(UTC+00:00)

Cosmos 1461 - Visible Passes

Search period start: 16 September 2024 00:00
Search period end: 26 September 2024 00:00
Orbit: 493 x 569 km, 65.0° (Epoch: 15 September)

Date Brightness Start Highest point End Pass type
(mag) Time Alt. Az. Time Alt. Az. Time Alt. Az.
16 Sep 5.8 01:12:57 13° NNE 01:12:57 13° NNE 01:13:25 10° NNE visible
16 Sep 5.4 02:48:45 10° NNW 02:49:11 10° NNW 02:49:37 10° N visible
17 Sep 6.0 01:02:17 11° NNE 01:02:17 11° NNE 01:02:26 10° NNE visible
21 Sep 5.8 03:34:10 10° NNE 03:34:16 10° NNE 03:34:24 10° NNE visible
22 Sep 5.7 03:22:30 10° N 03:23:13 10° NNE 03:23:57 10° NNE visible
23 Sep 5.7 03:11:05 10° N 03:12:08 11° NNE 03:13:10 10° NE visible
23 Sep 4.4 04:47:39 10° NNW 04:51:10 33° NE 04:54:43 10° ESE visible
24 Sep 5.7 02:59:42 10° N 03:00:59 11° NNE 03:02:16 10° NE visible
24 Sep 4.3 04:36:23 10° NNW 04:39:57 36° NE 04:43:35 10° ESE visible
25 Sep 5.7 02:48:18 10° N 02:49:47 12° NNE 02:51:18 10° NE visible
25 Sep 4.1 04:25:05 10° NNW 04:28:43 39° NE 04:32:24 10° ESE visible
